This is the latest recevied weather packets stored in our database for station/object KC5DP. If no packets are shown the sender has not sent any weather packets the latest 10 day(s).
| Time | Temp. | Humidity | Pressure | Rain* | Wind** | Luminosity | Snow |
|---|---|---|---|---|---|---|---|
| 1777924870 | 25.56° C | 47% | 1014.6 hPa | 0 mm | - | 694 W/m² | - |
| 1777924566 | 26.11° C | 43% | 1014.7 hPa | 0 mm | - | 696 W/m² | - |
| 1777923842 | 25° C | 45% | 1015.1 hPa | 0 mm | - | 741 W/m² | - |
| 1777923539 | 25° C | 45% | 1015.1 hPa | 0 mm | - | 741 W/m² | - |
| 1777923236 | 25° C | 43% | 1015.1 hPa | 0 mm | - | 734 W/m² | - |
| 1777922935 | 25° C | 49% | 1015.1 hPa | 0 mm | - | 746 W/m² | - |
| 1777922632 | 25.56° C | 47% | 1015.5 hPa | 0 mm | - | 751 W/m² | - |
| 1777922330 | 25.56° C | 46% | 1015.5 hPa | 0 mm | - | 758 W/m² | - |
| 1777922028 | 25.56° C | 44% | 1015.2 hPa | 0 mm | - | 752 W/m² | - |
| 1777921723 | 25° C | 46% | 1015.4 hPa | 0 mm | - | 764 W/m² | - |
| 1777921419 | 25° C | 46% | 1015.4 hPa | 0 mm | - | 755 W/m² | - |
| 1777921116 | 25° C | 48% | 1015.3 hPa | 0 mm | - | 775 W/m² | - |
| 1777920813 | 25° C | 44% | 1015.5 hPa | 0 mm | - | 787 W/m² | - |
| 1777920509 | 25° C | 47% | 1015.6 hPa | 0 mm | - | 777 W/m² | - |
| 1777920205 | 25° C | 46% | 1015.8 hPa | 0 mm | - | 787 W/m² | - |
| 1777919901 | 25° C | 43% | 1015.8 hPa | 0 mm | - | 787 W/m² | - |
| 1777919598 | 25° C | 47% | 1015.9 hPa | 0 mm | - | 795 W/m² | - |
| 1777919296 | 25° C | 44% | 1016.1 hPa | 0 mm | - | 796 W/m² | - |
| 1777918994 | 25° C | 47% | 1016 hPa | 0 mm | - | 807 W/m² | - |
| 1777918691 | 25° C | 44% | 1016.1 hPa | 0 mm | - | 806 W/m² | - |
| 1777918388 | 25° C | 47% | 1016.3 hPa | 0 mm | - | 800 W/m² | - |
| 1777918087 | 25° C | 42% | 1016.3 hPa | 0 mm | - | 819 W/m² | - |
| 1777917785 | 25° C | 42% | 1016.2 hPa | 0 mm | - | 686 W/m² | - |
| 1777917482 | 25.56° C | 42% | 1016.2 hPa | 0 mm | - | 757 W/m² | - |
| 1777917179 | 25° C | 43% | 1016.3 hPa | 0 mm | - | 799 W/m² | - |
* Rain latest hour (hover to see other rain measurements)
** Current wind speed in m/s (hover to see current wind gust speed)